Regional Weather Roundup
Issued by NWS

Home | Current Version | Previous Version | Graphics & Text | Print | Product List | Glossary On
Versions: 1 2 3 4 5 6 7 8 9 10 11 12 13 14 15 16 17 18 19 20 21 22 23 24 25 26 27 28 29 30 31 32 33 34 35 36 37 38 39 40 41 42 43 44 45 46 47 48 49 50
866
ASUS45 KTFX 010710
RWRMT
MONTANA REGIONAL WEATHER ROUNDUP
NATIONAL WEATHER SERVICE GREAT FALLS MT
1200 AM MST WED MAR 01 2017

NOTE: "FAIR" INDICATES FEW OR NO CLOUDS BELOW 12000 FEET WITH NO
SIGNIFICANT WEATHER AND/OR OBSTRUCTIONS TO VISIBILITY.

MTZ001>007-043-010800-
WEST OF THE DIVIDE

CITY           SKY/WX    TMP DP  RH WIND       PRES   REMARKS
KALISPELL      CLOUDY    21  11  65 S6        30.08F WCI  13
MISSOULA       CLOUDY    24  15  68 S6        30.15R WCI  17
BUTTE          PTCLDY    20   4  50 W14G21    30.03R WCI   7
MULLAN PASS    CLOUDY    15  13  91 W8        29.96S WCI   4
ANACONDA         N/A     23   7  50 W8        30.06R WCI  14
DEER LODGE       N/A     19  10  68 CALM      30.10R
EUREKA           N/A     27  12  54 SE13      30.06S WCI  16
HAMILTON         N/A     30  10  43 S9        30.13R WCI  22
LIBBY            N/A     21  14  73 CALM      30.06S
PLAINS           N/A     27  12  53 SW5       30.12F
RONAN            N/A     25  12  57 E1        30.13F
$$

MTZ008-052>055-010800-
SOUTHWEST MONTANA

CITY           SKY/WX    TMP DP  RH WIND       PRES   REMARKS
BOZEMAN        CLOUDY    22   6  50 CALM      30.05R
DILLON         CLOUDY    21   8  57 SW15      30.06R WCI   8
W YELLOWSTONE  CLOUDY    14   7  73 SW10      30.04R WCI   1
ENNIS          CLOUDY    21   7  53 SE9       30.10R WCI  11
THREE FORKS      N/A     26  26 100 W8        30.03R WCI  18
TWIN BRIDGES     N/A     21   8  57 SE3       30.05R
$$

MTZ009-010-012-014-046-048-049-054-010800-
EAST SLOPES AND CENTRAL MONTANA

CITY           SKY/WX    TMP DP  RH WIND       PRES   REMARKS
CUT BANK       CLEAR     16  10  77 W25G32    29.86F WCI  -3
GREAT FALLS    CLEAR     15   8  73 SW14      29.93S WCI   0
MALMSTROM AFB  CLEAR     11   9  90 SW14      29.95S WCI  -4
HELENA         CLOUDY    25  10  53 SE7       30.04R WCI  17
AUGUSTA        MOCLDY    21   4  49 W24G39    29.91R WCI   4
BOWMANS CRNR     N/A     19   3  50 SW16G23   29.92R WCI   5
CHOTEAU          N/A     21   7  53 W16G23    29.91F WCI   7
CONRAD           N/A      1  -3  83 NW1       29.92F
POWER            N/A      6   4  90 SW9       29.91S WCI  -8
RAYNESFORD       N/A     21   9  59 SW20      29.94R WCI   5
ULM              N/A     19  10  67 MISG      29.96S
$$

MTZ011-013-016-021-045-047-050-051-010800-
NORTH CENTRAL MONTANA

CITY           SKY/WX    TMP DP  RH WIND       PRES   REMARKS
HAVRE          CLOUDY    17  16  95 SW7       29.97S WCI   8
LEWISTOWN      PTCLDY    14  11  87 SW9       29.93R WCI   2
N BAR RANCH      N/A     14   9  79 W12       29.92R WCI   0
CHINOOK          N/A     18  16  93 CALM      29.98F
DENTON           N/A     13  11  93 SW17      29.91S WCI  -4
FORT BENTON      N/A     16  10  79 N5        29.99S
GEYSER           N/A     14   9  81 W14       29.92R WCI  -1
GRASS RANGE      N/A     19  15  84 W14       29.90R WCI   6
JUDITH GAP       N/A     13   8  81 W7        29.91R WCI   3
ROY            MOCLDY    19  15  85 MISG      29.93R
STANFORD         N/A     18   8  63 W18       29.90R WCI   2
WINIFRED       MOCLDY    18  16  92 SW7       29.93R WCI   9
$$

MTZ017>020-022>027-061-062-010800-
NORTHEAST MONTANA

CITY           SKY/WX    TMP DP  RH WIND       PRES   REMARKS
GLASGOW        CLOUDY    20  15  81 NW6       29.98R WCI  12
JORDAN           N/A     22  17  81 NW12      29.96R WCI  10
SIDNEY         FLURRIES  22  18  85 NW17      29.93R WCI   8
WOLF POINT     CLOUDY    21  14  74 W8        29.99R WCI  11
PLENTYWOOD       N/A     14  10  85 NW5       29.93R
POPLAR           N/A     19  12  73 NW6       29.97R WCI  11
SCOBEY           N/A     12   4  70 CALM      29.92R
$$

MTZ028>42-056>058-010800-
SOUTHCENTRAL AND SOUTHEAST MONTANA

CITY           SKY/WX    TMP DP  RH WIND       PRES   REMARKS
BAKER          LGT SNOW  25  21  85 NW17G24   29.89R FOG     WCI  12
BILLINGS       CLEAR     24  10  55 W12       29.97R WCI  13
LIVINGSTON     CLEAR     24   5  44 W26G33    29.97R WCI   8
MILES CITY     MOCLDY    26  19  74 NW13      29.95R WCI  15
BIG TIMBER     MOCLDY    21   7  53 SW10G17   29.98S WCI  10
EKALAKA          N/A     25  21  84 W9        29.86  VSB 1   WCI  16
FORSYTH          N/A     23  19  86 SW7       29.97R WCI  15
HARLOWTON        N/A     20   8  59 W24G32    29.93R WCI   3
LAUREL           N/A     21   6  52 CALM      29.95R
$$

REGIONAL REPORTS...DAKOTAS

CITY           SKY/WX    TMP DP  RH WIND       PRES   REMARKS
WILLISTON      FLURRIES  22  18  85 N10       29.91R WCI  11
MINOT          LGT SNOW  14  10  84 NE3       29.90S FOG
DICKINSON      MOCLDY    22  19  89 W14       29.81R WCI   9
BEACH            N/A    N/A N/A N/A MISG        N/A
CROSBY           N/A     10  10 100 NW7       29.94R WCI   0
TIOGA          FLURRIES  16  16 100 NW3       29.90R
WATFORD CITY   LGT SNOW  21  21 100 N9        29.89R WCI  11
BISMARCK       MOCLDY    13  10  88 E3        29.91S
GRAND FORKS    CLOUDY    12   3  67 N12       29.92F WCI  -2
FARGO          PTCLDY    18  15  88 N9        29.88F WCI   7
BUFFALO SD       N/A     27  23  85 NW23      29.77R WCI  12
RAPID CITY     CLEAR     15  12  88 W3        29.86R
$$

REGIONAL REPORTS...WYOMING/IDAHO/WASHINGTON

CITY           SKY/WX    TMP DP  RH WIND       PRES   REMARKS
GILLETTE       CLOUDY    27  14  58 NW17      29.91R WCI  14
SHERIDAN       CLOUDY    28  13  53 W14       29.95R WCI  17
BUFFALO WY     CLOUDY    25  14  63 NW23G31   29.92R WCI  10
CODY           CLEAR     23   7  50 W5        29.96R
YELLOWSTONE LA   N/A      6   0  76 VRB7      29.98R WCI  -6
IDAHO FALLS    CLEAR     17  13  84 S15       30.18R WCI   2
SALMON         CLOUDY    25  12  58 CALM      30.14R
BOISE          CLOUDY    32  24  72 SE7       30.27R WCI  26
SPOKANE        CLOUDY    28  20  71 S9        30.10F WCI  19
$$

REGIONAL REPORTS...ALBERTA

CITY           SKY/WX    TMP DP  RH WIND       PRES   REMARKS
CALGARY        MOCLDY    12   7  79 S6        29.72F WCI   3
LETHBRIDGE     MOCLDY    14   9  79 SW14      29.84S WCI  -1
MEDICINE HAT   MOCLDY    10   7  85 SW7       29.92S WCI   0
WATERTON GATE    N/A     19  10  68 SW38G55     N/A  WCI  -1
MILK RIVER       N/A      1   0  92 S3          N/A
$$

REGIONAL REPORTS...SASKATCHEWAN

CITY           SKY/WX    TMP DP  RH WIND       PRES   REMARKS
SWIFT CURRENT  CLEAR      7   5  92 SW9       29.91R WCI  -7
REGINA         FLURRIES   9   7  92 SW3       29.95R
SASKATOON      CLEAR      3  -4  72 S3        29.97R
ROCKGLEN         N/A     12   9  85 N9          N/A  WCI   0
$$




USA.gov is the U.S. government's official web portal to all federal, state and local government web resources and services.